Regional Weather Roundup
Issued by NWS Goodland, KS

Home | Current Version | Previous Version | Text Only | Print | Product List | Glossary Off
Versions: 1 2 3 4 5 6 7 8 9 10 11 12 13 14 15 16 17 18 19 20 21 22 23 24 25 26 27 28 29 30 31 32 33 34 35 36 37 38 39 40 41 42 43 44 45 46 47 48 49 50

000
ASUS43 KGLD 012259
RWRGLD

GOODLAND FORECAST AREA HOURLY WEATHER ROUNDUP
NATIONAL WEATHER SERVICE GOODLAND KS
500 PM MDT SAT AUG 01 2015

...OFFICIAL OBSERVATIONS...

CITY           SKY/WX    TMP DP  RH WIND       PRES   REMARKS
GOODLAND KS    MOSUNNY   89  49  25 SE13      30.03F
HILL CITY KS   SUNNY     94  56  27 SE9       29.97F
IMPERIAL NEB   SUNNY     94  47  20 SE17G28   29.98F
MCCOOK NEB     SUNNY     92  57  30 SE12      29.97F
AKRON CO       SUNNY     90  53  28 SE20G28   30.03F
BURLINGTON CO  SUNNY     87  52  29 SE18G24   30.05F
LIMON CO       MOSUNNY   87  52  29 SE17G25   30.09F
$$

...UNOFFICIAL OBSERVATIONS...

CITY           SKY/WX    TMP DP  RH WIND       PRES   REMARKS
COLBY KS       SUNNY     91  57  31 SE15G22   30.04S
NORTON KS      SUNNY     90  52  27 SE9       29.97F
SHARON SPRINGS   N/A     89  60  37 SE13G20     N/A
KIT CARSON CO    N/A     88  59  37 MISG        N/A
YUMA CO          N/A     88  58  35 SW6G13      N/A
$$



USA.gov is the U.S. government's official web portal to all federal, state and local government web resources and services.